TimeCST,TemperatureF,Dew PointF,Humidity,Sea Level PressureIn,VisibilityMPH,Wind Direction,Wind SpeedMPH,Gust SpeedMPH,PrecipitationIn,Events,Conditions,WindDirDegrees,DateUTC
12:10 AM,39.2,37.4,93,29.91,3.0,ESE,3.5,-,0.00,Rain,Light Rain,120,2012-11-07 06:10:00
12:22 AM,39.2,37.4,93,29.91,2.5,Calm,Calm,-,0.00,,Overcast,0,2012-11-07 06:22:00
12:52 AM,39.0,37.9,96,29.93,2.5,East,3.5,-,0.00,Rain,Light Rain,100,2012-11-07 06:52:00
1:52 AM,39.9,37.9,93,29.94,2.5,Calm,Calm,-,0.01,Rain,Light Rain,0,2012-11-07 07:52:00
2:07 AM,39.2,37.4,93,29.92,2.5,Calm,Calm,-,0.00,Rain,Light Rain,0,2012-11-07 08:07:00
2:52 AM,39.9,37.9,93,29.95,2.5,Calm,Calm,-,0.00,Rain,Light Rain,0,2012-11-07 08:52:00
3:23 AM,39.2,37.4,93,29.94,3.0,Calm,Calm,-,0.01,,Overcast,0,2012-11-07 09:23:00
3:32 AM,39.2,37.4,93,29.94,2.5,Calm,Calm,-,0.01,,Overcast,0,2012-11-07 09:32:00
3:50 AM,39.2,37.4,93,29.94,3.0,Calm,Calm,-,0.01,,Overcast,0,2012-11-07 09:50:00
3:52 AM,39.9,37.9,93,29.96,3.0,Calm,Calm,-,0.01,,Overcast,0,2012-11-07 09:52:00
4:03 AM,39.2,39.2,100,29.95,2.5,Calm,Calm,-,N/A,,Overcast,0,2012-11-07 10:03:00
4:13 AM,39.2,39.2,100,29.95,3.0,Calm,Calm,-,N/A,,Overcast,0,2012-11-07 10:13:00
4:35 AM,39.2,39.2,100,29.96,2.5,Calm,Calm,-,N/A,,Overcast,0,2012-11-07 10:35:00
5:48 AM,39.2,39.2,100,29.98,3.0,Calm,Calm,-,N/A,,Overcast,0,2012-11-07 11:48:00
5:52 AM,39.9,39.0,97,30.00,3.0,Calm,Calm,-,N/A,,Overcast,0,2012-11-07 11:52:00
6:45 AM,41.0,39.2,93,30.01,3.0,Calm,Calm,-,N/A,,Overcast,0,2012-11-07 12:45:00
6:52 AM,41.0,39.0,93,30.03,2.0,Calm,Calm,-,N/A,,Overcast,0,2012-11-07 12:52:00
7:52 AM,41.0,39.0,93,30.06,1.8,Calm,Calm,-,N/A,,Overcast,0,2012-11-07 13:52:00
8:03 AM,41.0,39.2,93,30.04,1.8,Calm,Calm,-,N/A,,Overcast,0,2012-11-07 14:03:00
8:17 AM,41.0,39.2,93,30.05,2.0,Calm,Calm,-,N/A,,Overcast,0,2012-11-07 14:17:00
8:52 AM,42.1,39.9,92,30.07,2.0,Calm,Calm,-,N/A,,Overcast,0,2012-11-07 14:52:00
9:24 AM,42.8,39.2,87,30.07,2.0,Calm,Calm,-,N/A,,Overcast,0,2012-11-07 15:24:00
9:52 AM,44.1,39.0,82,30.10,2.0,Variable,3.5,-,N/A,,Haze,0,2012-11-07 15:52:00
9:59 AM,44.6,37.4,76,30.08,2.0,East,3.5,-,N/A,,Haze,90,2012-11-07 15:59:00
10:08 AM,44.6,37.4,76,30.09,5.0,Calm,Calm,-,N/A,,Haze,0,2012-11-07 16:08:00
10:52 AM,45.0,37.9,76,30.11,6.0,NE,5.8,-,N/A,,Haze,50,2012-11-07 16:52:00
11:52 AM,45.0,37.9,76,30.11,6.0,Calm,Calm,-,N/A,,Haze,0,2012-11-07 17:52:00
12:52 PM,46.0,37.9,73,30.10,6.0,ENE,3.5,-,N/A,,Haze,70,2012-11-07 18:52:00
1:16 PM,46.4,37.4,71,30.08,6.0,SE,3.5,-,N/A,,Haze,140,2012-11-07 19:16:00
1:38 PM,46.4,37.4,71,30.09,6.0,Calm,Calm,-,N/A,,Haze,0,2012-11-07 19:38:00
1:52 PM,46.0,37.0,71,30.10,7.0,East,3.5,-,N/A,,Overcast,100,2012-11-07 19:52:00
2:52 PM,46.0,37.9,73,30.11,6.0,NE,3.5,-,N/A,,Haze,50,2012-11-07 20:52:00
3:52 PM,46.0,37.9,73,30.12,6.0,East,4.6,-,N/A,,Haze,80,2012-11-07 21:52:00
4:52 PM,45.0,37.9,76,30.13,7.0,Calm,Calm,-,N/A,,Overcast,0,2012-11-07 22:52:00
5:52 PM,45.0,37.9,76,30.15,7.0,Calm,Calm,-,N/A,,Overcast,0,2012-11-07 23:52:00
6:52 PM,45.0,37.9,76,30.16,7.0,Calm,Calm,-,N/A,,Overcast,0,2012-11-08 00:52:00
7:52 PM,44.1,39.0,82,30.17,6.0,Calm,Calm,-,N/A,,Haze,0,2012-11-08 01:52:00
8:52 PM,43.0,39.9,89,30.18,4.0,NW,3.5,-,N/A,,Overcast,320,2012-11-08 02:52:00
9:52 PM,43.0,39.9,89,30.19,4.0,Calm,Calm,-,N/A,,Overcast,0,2012-11-08 03:52:00
10:52 PM,43.0,39.9,89,30.19,4.0,NW,3.5,-,N/A,,Overcast,320,2012-11-08 04:52:00
11:52 PM,43.0,39.9,89,30.19,3.0,Calm,Calm,-,N/A,,Overcast,0,2012-11-08 05:52:00